Wind_Speed
15 15 13 12 13 14 16 16 12 11 10 10 11 12 12 10 10 11 10 11 13 9 5 7 3 5 11 14 8 10 18 17 19 19 20 22 25 25 23 20 22 23 21
13 10 10 12 15 14 14 13 12 10 8 9 10 10 9 8 9 11 10 10 11 5 12 7 5 5 8 12 11 12 14 16 19 20 21 21 21 22 22 22 21 20 20
8 8 11 14 14 14 13 11 11 9 7 8 9 8 7 7 9 10 10 13 4 6 8 7 5 7 8 13 15 11 11 14 18 20 20 21 21 22 24 23 24 20 20
6 8 9 9 10 10 13 11 9 8 7 7 7 5 5 7 9 8 10 11 10 5 4 6 5 7 9 13 12 14 14 17 20 20 20 21 23 23 22 22 21 19 18
6 8 9 11 11 12 13 10 7 8 7 6 6 4 3 8 5 7 9 7 7 4 3 6 8 9 13 13 13 13 16 18 18 20 21 19 18 15 24 19 25 21 16
6 8 10 7 7 8 8 6 7 6 6 8 6 2 4 3 4 4 8 9 8 7 9 6 6 11 13 14 15 16 19 21 23 22 20 19 18 19 14 18 21 14 17
5 7 5 5 5 4 2 4 7 7 7 10 5 3 2 3 3 2 5 9 8 6 4 5 5 9 15 14 12 16 20 24 23 24 24 23 22 20 15 18 20 8 13
4 3 3 4 4 3 5 6 7 6 9 10 5 3 1 3 2 2 5 10 12 9 7 6 4 7 14 19 18 22 24 23 21 19 21 23 18 19 16 14 13 19 23
1 1 2 4 4 3 6 5 7 6 8 10 6 4 1 2 3 4 4 9 13 13 11 6 7 8 16 21 22 23 24 24 23 19 21 22 20 25 23 19 23 23 21
2 2 2 4 3 5 5 4 7 8 8 11 9 5 3 4 7 6 6 7 12 12 14 15 16 15 19 21 23 24 23 20 16 17 18 13 18 25 26 28 26 21 23
4 2 1 3 3 4 5 3 4 8 10 13 11 8 7 7 8 5 3 5 8 10 13 20 22 19 22 23 22 21 20 18 19 20 16 21 29 30 28 26 23 19 23
6 4 4 6 5 3 5 6 3 7 12 12 13 10 9 8 8 5 4 4 4 9 13 17 22 20 20 20 22 22 22 23 21 22 27 25 20 21 25 25 23 23 20
8 6 7 8 9 7 2 4 4 8 14 13 15 12 10 9 7 8 7 8 8 14 13 16 14 16 18 17 14 20 25 26 25 27 21 17 27 28 25 22 21 20 17
9 8 8 7 8 9 6 5 6 9 15 13 13 13 11 8 5 9 9 10 12 14 17 14 12 13 14 16 15 14 18 19 21 20 20 25 23 19 19 20 18 15 11
9 9 9 8 9 9 8 7 10 11 14 14 15 12 10 9 10 11 12 14 16 14 15 14 14 16 18 17 18 20 20 20 21 22 21 19 18 17 19 17 13 8 4
11 10 10 10 9 9 9 10 12 15 16 17 15 11 9 11 13 13 14 15 15 16 16 17 19 20 19 18 18 16 14 13 13 13 14 15 17 17 15 12 8 5 4
12 12 12 12 11 13 13 13 14 15 16 16 13 11 12 12 15 17 17 19 19 19 16 16 16 16 15 14 14 15 14 13 13 13 14 14 14 13 11 10 7 6 5
13 13 14 14 12 12 15 16 16 15 12 12 13 13 14 15 16 16 16 15 15 16 15 13 14 14 13 13 13 13 12 12 12 12 11 11 10 10 9 7 6 7 8
12 13 15 15 14 12 13 15 15 17 18 17 17 17 18 19 18 15 13 11 11 11 10 10 10 11 13 14 14 14 13 11 10 9 9 8 8 9 10 10 10 10 12
9 12 13 15 16 14 12 13 15 16 15 15 14 14 14 14 13 13 13 12 11 9 8 7 8 12 13 13 13 11 9 11 11 10 9 8 9 9 8 10 11 12 15
11 11 15 16 17 17 15 13 12 13 14 15 14 13 12 10 9 8 8 8 7 7 6 6 7 8 10 12 12 10 11 10 7 5 6 6 6 8 9 11 13 15 17
15 15 14 17 18 19 19 18 16 14 13 13 13 11 10 9 8 7 7 7 6 5 5 5 5 8 10 9 8 12 14 16 14 13 12 12 11 13 14 15 17 18 20
14 17 18 17 16 16 17 18 19 18 18 17 16 16 15 12 11 10 10 9 9 8 8 8 8 8 9 10 12 14 16 17 19 18 17 16 17 19 20 20 21 21 22
22 18 17 18 20 19 17 16 18 20 20 21 21 20 20 20 21 21 20 18 17 16 16 15 15 15 16 16 16 17 18 20 22 23 24 24 25 26 27 28 28 28 28
28 26 23 21 18 20 22 22 21 20 19 19 21 22 24 24 25 25 26 25 25 24 24 24 23 23 23 23 23 24 25 26 27 28 29 30 30 31 31 32 32 31 30
32 34 34 31 28 24 22 21 21 21 21 20 20 20 21 22 24 26 27 27 28 28 28 29 29 30 31 31 31 30 31 32 32 34 35 35 33 31 31 31 31 33 35
Wind_Direction
269 264 269 276 280 286 294 289 277 268 264 285 281 273 271 279 302 320 300 328 337 323 303 281 271 186 194 200 200 166 176 179 182 183 186 182 180 188 185 183 192 199 198
263 260 274 280 280 282 281 278 264 251 263 284 264 259 274 298 309 314 299 304 306 336 313 275 228 179 164 161 156 145 162 177 172 179 183 183 182 189 187 188 183 185 187
257 279 291 288 278 269 252 265 240 246 263 272 247 270 292 299 319 314 304 292 297 292 294 244 224 191 176 166 158 162 162 173 174 176 176 176 177 180 182 178 182 187 190
268 294 300 289 274 267 268 267 240 238 261 252 240 281 293 319 315 313 315 311 314 308 253 211 163 160 173 174 176 174 172 170 164 166 173 178 177 176 183 184 186 183 180
286 306 297 295 288 273 266 259 228 230 248 230 227 292 322 326 302 348 338 347 322 328 128 135 150 161 174 170 160 170 167 165 160 166 169 170 174 184 188 182 176 179 169
297 314 311 312 294 280 266 235 224 219 233 206 212 212 328 12 324 9 22 7 37 111 118 125 149 160 165 157 164 165 161 156 161 162 161 159 154 168 151 170 171 170 179
313 323 335 320 293 277 251 203 190 207 208 189 184 173 31 359 11 6 23 35 43 123 103 112 98 147 156 148 153 159 157 160 161 154 157 159 166 169 158 151 168 183 198
321 345 347 301 301 272 245 229 214 207 196 182 175 166 39 12 14 85 67 52 72 81 78 64 90 130 159 159 154 149 145 146 146 150 155 155 159 166 160 168 173 149 137
22 60 320 302 268 242 222 195 195 196 191 181 177 175 96 45 125 130 105 61 56 59 53 94 117 116 151 157 150 143 145 146 144 153 156 152 161 166 163 159 148 135 131
129 238 323 311 255 228 239 207 204 208 198 183 193 173 107 124 129 119 106 77 64 64 71 98 104 111 142 143 149 155 157 157 157 154 163 164 154 147 145 148 150 150 131
155 165 28 339 318 229 217 188 185 194 195 183 186 167 136 134 123 108 93 96 77 80 98 93 96 114 123 138 151 152 156 159 157 154 151 146 141 142 145 152 156 139 142
150 106 52 32 57 113 186 218 203 187 185 184 177 166 139 135 131 122 98 137 91 117 125 114 102 92 99 113 124 130 134 143 147 142 143 139 136 134 126 125 137 142 139
134 99 77 54 44 42 102 193 185 173 189 186 176 160 148 146 120 120 122 124 118 126 132 137 125 113 100 93 110 124 121 126 132 136 132 135 141 139 135 138 139 141 143
126 111 103 70 40 35 75 162 148 145 168 181 173 158 146 137 113 137 132 114 129 135 136 145 142 112 93 96 101 111 128 137 144 146 143 147 141 136 141 145 146 153 157
124 122 119 93 60 47 77 107 138 144 156 169 164 162 153 133 128 129 123 120 126 134 137 139 136 121 114 109 104 111 117 127 141 150 152 149 144 148 150 154 158 159 158
132 127 129 113 79 62 92 106 123 138 151 153 154 153 149 136 137 138 128 124 127 129 130 134 134 132 131 129 126 124 129 137 143 146 151 156 158 155 159 165 172 190 216
147 138 132 127 106 85 93 104 106 134 138 143 148 148 140 132 135 136 129 126 123 120 123 126 129 131 134 140 145 147 148 151 156 158 156 152 154 165 172 180 197 217 222
157 149 141 145 131 112 100 98 103 122 130 131 136 140 138 135 136 133 132 132 130 130 132 137 141 145 151 153 152 146 143 144 149 150 153 155 164 180 192 209 226 233 242
170 168 155 156 154 137 120 118 115 114 118 122 130 137 136 127 131 130 131 134 138 144 145 151 154 156 155 150 147 143 139 142 154 159 170 180 195 207 217 225 236 242 250
191 180 177 167 170 164 149 133 127 128 130 130 132 136 139 141 140 140 139 139 137 132 133 142 148 161 159 158 159 161 172 174 175 181 193 208 218 232 241 248 255 260 265
209 199 188 187 179 180 181 172 156 144 138 136 134 136 140 146 151 154 153 151 151 153 157 163 164 179 197 201 202 206 201 193 190 210 233 232 247 254 255 258 261 264 268
199 210 211 203 199 194 190 193 193 189 181 171 161 156 156 156 157 164 173 177 179 181 183 182 192 208 213 217 221 218 217 222 235 252 258 251 252 261 267 273 280 285 289
201 201 216 223 220 214 208 207 208 209 212 212 209 202 202 211 219 224 227 231 234 234 231 233 232 232 232 228 225 226 230 238 246 256 263 261 263 269 276 282 285 286 286
210 207 205 215 226 227 224 222 223 225 225 226 227 229 230 228 227 231 239 245 246 245 246 249 250 252 255 257 256 257 258 260 262 265 268 272 275 277 281 284 288 291 292
212 213 213 211 210 216 221 222 224 229 234 237 239 240 241 241 243 244 242 241 242 245 246 246 247 249 253 255 258 261 263 265 268 270 272 271 270 272 275 278 282 285 289
219 220 216 214 211 217 222 224 226 228 232 236 239 239 241 243 246 250 255 258 259 258 255 253 251 250 250 251 254 258 261 263 266 270 274 276 276 276 276 277 280 284 286
Height
5716 5716 5715 5714 5713 5711 5709 5708 5707 5706 5706 5704 5703 5702 5702 5702 5700 5697 5695 5693 5690 5687 5686 5687 5687 5687 5688 5689 5691 5692 5696 5701 5706 5711 5716 5720 5725 5729 5734 5740 5744 5748 5753
5712 5712 5711 5710 5708 5707 5706 5705 5704 5703 5703 5701 5701 5701 5700 5699 5697 5695 5693 5690 5689 5687 5685 5686 5687 5687 5688 5689 5691 5694 5696 5701 5706 5710 5715 5720 5724 5729 5734 5739 5743 5747 5751
5709 5709 5707 5706 5704 5703 5703 5702 5702 5701 5700 5699 5698 5698 5698 5697 5695 5693 5691 5689 5683 5685 5684 5684 5685 5687 5688 5690 5692 5695 5698 5702 5706 5709 5713 5718 5723 5728 5732 5737 5741 5746 5750
5706 5705 5703 5703 5701 5700 5699 5699 5699 5698 5697 5697 5697 5697 5696 5695 5694 5692 5690 5687 5685 5684 5683 5683 5685 5686 5688 5690 5692 5695 5698 5702 5706 5710 5714 5718 5723 5727 5733 5738 5743 5746 5751
5702 5701 5700 5699 5697 5696 5694 5694 5695 5694 5694 5695 5696 5696 5695 5695 5693 5691 5689 5687 5684 5683 5683 5684 5685 5686 5688 5690 5692 5695 5698 5702 5707 5711 5715 5719 5724 5726 5731 5737 5743 5747 5750
5699 5698 5696 5694 5693 5692 5691 5691 5691 5692 5692 5694 5695 5695 5696 5695 5693 5693 5690 5688 5685 5684 5685 5685 5685 5686 5688 5690 5693 5696 5699 5702 5706 5711 5715 5720 5724 5729 5733 5738 5744 5747 5751
5697 5695 5693 5692 5692 5690 5689 5690 5690 5691 5692 5694 5695 5695 5696 5695 5695 5694 5692 5691 5688 5688 5687 5687 5686 5687 5690 5693 5696 5698 5701 5705 5709 5711 5715 5720 5725 5730 5735 5739 5744 5747 5751
5694 5693 5692 5692 5691 5689 5689 5689 5690 5691 5691 5693 5694 5695 5696 5695 5695 5695 5695 5693 5691 5690 5689 5688 5687 5688 5690 5694 5697 5702 5705 5709 5711 5714 5718 5723 5728 5732 5736 5740 5746 5749 5753
5692 5692 5692 5690 5689 5688 5689 5689 5689 5690 5691 5693 5694 5695 5696 5696 5696 5696 5696 5696 5695 5693 5691 5690 5688 5689 5692 5694 5699 5704 5708 5711 5714 5718 5721 5724 5728 5732 5736 5743 5748 5752 5756
5691 5691 5690 5689 5688 5688 5688 5688 5688 5689 5691 5693 5694 5696 5697 5697 5697 5698 5698 5699 5699 5697 5695 5693 5692 5692 5695 5698 5701 5705 5709 5714 5718 5722 5726 5729 5731 5735 5740 5745 5750 5755 5759
5690 5690 5689 5689 5687 5687 5687 5687 5687 5688 5690 5692 5695 5697 5699 5699 5699 5700 5701 5701 5702 5701 5702 5700 5700 5700 5701 5702 5706 5709 5713 5717 5722 5726 5730 5733 5736 5740 5744 5748 5753 5757 5762
5689 5689 5688 5688 5687 5686 5686 5686 5687 5688 5690 5692 5695 5699 5700 5701 5702 5702 5702 5703 5704 5705 5706 5708 5707 5709 5710 5710 5712 5714 5717 5722 5726 5731 5735 5740 5742 5745 5750 5753 5758 5762 5764
5688 5688 5689 5689 5688 5686 5686 5685 5686 5687 5690 5692 5696 5700 5702 5703 5704 5704 5705 5706 5707 5708 5709 5712 5713 5716 5717 5718 5720 5720 5722 5727 5732 5736 5740 5743 5746 5748 5752 5757 5761 5764 5766
5689 5689 5690 5690 5689 5687 5686 5685 5686 5687 5690 5694 5698 5702 5703 5704 5705 5706 5707 5709 5709 5711 5712 5716 5717 5719 5721 5722 5724 5727 5729 5732 5736 5740 5743 5746 5750 5754 5757 5760 5763 5765 5767
5689 5690 5691 5692 5691 5689 5688 5687 5688 5690 5693 5696 5700 5704 5705 5706 5707 5708 5710 5712 5713 5715 5716 5719 5721 5723 5725 5728 5730 5733 5735 5738 5741 5744 5746 5750 5753 5757 5760 5763 5764 5766 5767
5689 5691 5692 5694 5694 5693 5691 5691 5691 5692 5695 5699 5702 5705 5707 5708 5709 5711 5713 5715 5718 5719 5721 5722 5725 5727 5729 5732 5735 5738 5741 5743 5746 5748 5751 5753 5756 5759 5762 5764 5766 5766 5767
5691 5692 5694 5695 5697 5697 5696 5696 5696 5697 5699 5702 5704 5707 5709 5711 5713 5715 5716 5719 5721 5723 5725 5727 5729 5731 5733 5736 5738 5740 5743 5746 5748 5751 5753 5756 5758 5760 5762 5764 5765 5765 5766
5692 5693 5695 5697 5699 5700 5700 5700 5701 5701 5704 5705 5707 5709 5712 5714 5717 5718 5720 5723 5725 5726 5728 5730 5732 5734 5736 5738 5740 5742 5745 5747 5749 5752 5754 5756 5759 5761 5762 5762 5763 5763 5763
5694 5695 5696 5698 5700 5702 5703 5704 5706 5707 5708 5710 5712 5713 5715 5717 5720 5722 5724 5727 5728 5729 5730 5732 5734 5736 5738 5739 5741 5743 5746 5748 5750 5752 5754 5756 5757 5758 5759 5758 5759 5760 5761
5695 5697 5698 5699 5701 5704 5705 5707 5708 5710 5711 5713 5716 5717 5719 5721 5723 5725 5727 5728 5730 5731 5733 5734 5736 5737 5739 5741 5743 5745 5746 5748 5749 5751 5752 5753 5754 5755 5756 5756 5757 5757 5757
5694 5697 5698 5699 5701 5704 5706 5709 5710 5712 5713 5715 5717 5720 5723 5725 5726 5728 5729 5731 5732 5733 5734 5735 5737 5738 5740 5742 5744 5745 5747 5748 5749 5750 5751 5752 5752 5752 5753 5753 5753 5753 5752
5690 5694 5698 5699 5700 5701 5704 5707 5710 5712 5714 5716 5718 5721 5724 5725 5727 5728 5730 5731 5732 5733 5734 5735 5737 5738 5739 5740 5742 5743 5745 5746 5747 5747 5748 5748 5749 5749 5749 5748 5748 5747 5747
5687 5690 5694 5698 5700 5702 5703 5705 5707 5710 5712 5715 5717 5718 5720 5723 5725 5727 5728 5729 5731 5732 5733 5734 5735 5736 5737 5738 5739 5740 5741 5742 5742 5742 5743 5744 5744 5744 5743 5743 5743 5742 5741
5682 5685 5689 5693 5697 5699 5700 5702 5704 5706 5709 5711 5714 5716 5717 5718 5720 5722 5723 5725 5727 5728 5729 5730 5732 5733 5734 5735 5735 5736 5737 5737 5737 5737 5737 5737 5737 5737 5737 5736 5736 5735 5734
5675 5680 5684 5688 5690 5692 5694 5696 5698 5701 5704 5706 5709 5711 5713 5714 5715 5716 5717 5718 5720 5722 5723 5724 5725 5726 5727 5728 5729 5730 5731 5731 5731 5730 5730 5730 5730 5730 5730 5729 5729 5728 5726
5668 5671 5675 5678 5681 5685 5688 5691 5693 5695 5697 5700 5702 5704 5705 5707 5709 5710 5712 5714 5715 5715 5716 5716 5718 5718 5718 5719 5720 5721 5722 5722 5722 5721 5719 5719 5721 5722 5721 5721 5720 5718 5717